Content
SEND FEEDBACK

United States of America Flag

AIEA - KEAIWA HEIAU STATE PARK, HAWAII


Home > North America > United States > Hawaii
Elevation: 780 feet     Latitude: 21 24N     Longitude: 157 55W

WEATHER
 
SELECT A DAY
Number of Records: 193,821;   Date Range: 1/1/95 - 3/22/16
 
SHARE

PRINT THIS DATA

[ ← Previous Day ]
WEATHER ALMANAC - FEBRUARY 14, 2013
[ Next Day → ]
[ °C ]   °F
Weather ElementAverageHighLow
Temperature73 °F78.1 °F (12:53 pm)68 °F (3:53 am)
Dewpoint56.6 °F59 °F (8:53 pm)54 °F (3:53 am)
Humidity56.9 %66 % (10:53 pm)46 % (12:53 pm)
Barometer30.06 in30.12 in (9:53 am)30.01 in (3:53 pm)
Wind Speed10.3 mph15 mph (2:53 pm)
Wind Gust20.7 mph (10:53 am)
Weather ElementAverage
Visibility10 mi
Wind DirectionNE (45.7 °)

Weather ElementTotal
Precipitation---
Cooling Degree Days8.1 (Base 65)
Growing Degree Days23.1 (Base 50)
Averaged from 23 records on February 14, 2013
WEATHER CONDITIONS BREAKOUT
WIND DIRECTION BREAKOUT
WEATHER BY HOUR - FEBRUARY 14, 2013
[ °C ]   °F
Local TimeTemperatureDewpointHumidityBarometerVisibilityWind DirectionWind SpeedGust SpeedPrecipitationEventsConditions
1:53 AM70.0 °F57.9 °F65 %30.08 in10.0 miNorth (10°)3.5 mphMostly Cloudy
2:53 AM70.0 °F55.0 °F59 %30.06 in10.0 miNE (50°)8.1 mphMostly Cloudy
3:53 AM68.0 °F54.0 °F61 %30.05 in10.0 miNNE (20°)5.8 mphMostly Cloudy
4:53 AM68.0 °F54.0 °F61 %30.06 in10.0 miNNE (20°)4.6 mphMostly Cloudy
5:53 AM70.0 °F55.9 °F61 %30.06 in10.0 miENE (60°)8.1 mphMostly Cloudy
6:53 AM70.0 °F55.9 °F61 %30.07 in10.0 miNE (40°)6.9 mphMostly Cloudy
7:53 AM71.1 °F57.0 °F61 %30.09 in10.0 miENE (60°)9.2 mphScattered Clouds
8:53 AM73.0 °F55.9 °F55 %30.11 in10.0 miENE (60°)9.2 mphScattered Clouds
9:53 AM75.0 °F55.9 °F51 %30.12 in10.0 miENE (60°)11.5 mphScattered Clouds
10:53 AM75.9 °F55.0 °F48 %30.09 in10.0 miENE (60°)13.8 mph20.7 mphScattered Clouds
11:53 AM77.0 °F55.9 °F48 %30.08 in10.0 miENE (70°)9.2 mphMostly Cloudy
12:53 PM78.1 °F55.9 °F46 %30.06 in10.0 miNE (50°)13.8 mph19.6 mphScattered Clouds
1:53 PM78.1 °F55.9 °F46 %30.03 in10.0 miNNE (30°)11.5 mphMostly Cloudy
2:53 PM77.0 °F57.0 °F50 %30.02 in10.0 miNNE (20°)15.0 mph19.6 mphMostly Cloudy
3:53 PM77.0 °F57.0 °F50 %30.01 in10.0 miNNE (30°)10.4 mph17.3 mphMostly Cloudy
4:53 PM75.9 °F57.0 °F52 %30.02 in10.0 miNNE (30°)11.5 mphMostly Cloudy
5:53 PM73.9 °F57.0 °F55 %30.03 in10.0 miNNE (30°)13.8 mphScattered Clouds
6:53 PM72.0 °F57.9 °F61 %30.04 in10.0 miENE (60°)15.0 mph19.6 mphMostly Cloudy
7:53 PM72.0 °F57.9 °F61 %30.04 in10.0 miEast (90°)11.5 mphScattered Clouds
8:53 PM72.0 °F59.0 °F64 %30.06 in10.0 miNE (50°)10.4 mphMostly Cloudy
9:53 PM72.0 °F59.0 °F64 %30.07 in10.0 miENE (60°)8.1 mphMostly Cloudy
10:53 PM71.1 °F59.0 °F66 %30.08 in10.0 miNE (50°)12.7 mphMostly Cloudy
11:53 PM71.1 °F57.9 °F63 %30.07 in10.0 miNE (40°)12.7 mphScattered Clouds
Hourly data recorded from PHNL, located miles away from Aiea - Keaiwa Heiau State Park, Hawaii




STORIES FROM OUR PARTNERS